Location: *
(12.5665°N, 8.3471°E)
Time: 10:46:12
(UTC+00:00)

Cosmos 1515 - Pass Details

Date: 23 September 2019
Orbit: 507 x 516 km, 82.5° (Epoch: 20 October)

Event Time Altitude Azimuth Distance (km) Brightness Sun altitude
Rises 04:41:06 0° 198° (SSW) 2,606 7.1 -9.3°
Reaches altitude 10° 04:43:19 10° 205° (SSW) 1,723 6.1 -8.7°
Maximum altitude 04:46:51 39° 275° (W) 781 4.1 -7.9°
Drops below altitude 10° 04:50:25 10° 345° (NNW) 1,729 6.2 -7.0°
Sets 04:52:38 0° 353° (N) 2,616 7.2 -6.5°
